Tracking 26443 objects as of 4-Dec-2022
HD Live streaming from Space Station
objects crossing your sky now

COSMOS 1408 DEB

Track COSMOS 1408 DEB now!
10-day predictions


NORAD ID: 52809
Int'l Code: 1982-092BZW
Perigee: 446.1 km
Apogee: 693.3 km
Inclination: 82.5 °
Period: 95.9 minutes
Semi major axis: 6940 km
RCS: Unknown
Launch date: September 16, 1982
Source: Commonwealth of Independent States (former USSR) (CIS)
Launch site: PLESETSK MISSILE AND SPACE COMPLEX (PKMTR)

Note: This is SATELLITE DEBRIS
aabbcc
Your satellite tracking list
Your tracking list is empty




NASA's NSSDC Master Catalog

Two Line Element Set (TLE):
1 52809U 82092BZW 22337.67421049  .00030358  00000-0  16642-2 0  9995
2 52809  82.5444 120.3788 0178131 199.5189 159.9162 15.01403264 34214
Source of the keplerian elements: AFSPC